Regional Weather Roundup
Issued by NWS Sterling, VA

Home | Current Version | Previous Version | Graphics & Text | Print | Product List | Glossary On
Versions: 1 2 3 4 5 6 7 8 9 10 11 12 13 14 15 16 17 18 19 20 21 22 23 24 25 26 27 28 29 30 31 32 33 34 35 36 37 38 39 40 41 42 43 44 45 46 47 48 49 50
000
ASUS41 KLWX 271310
RWRLWX

REGIONAL WEATHER ROUNDUP
NATIONAL WEATHER SERVICE BALTIMORE MD/WASHINGTON DC
900 AM EDT SUN JUL 27 2014

Note: "FAIR" indicates few or no clouds below 12,000 feet
with no significant weather and/or obstructions to visibility.
 TC=TEMPERATURE CELSIUS

 * =Non NWS site. Station does not report precipitation (e.g. rain,
    snow, etc.), thunder, or fog.

DCZ001-MDZ009-015-VAZ040>042-051-053>054-271400-
WASHINGTON METRO
  /KDAA//-FT BELVOIR

CITY           SKY/WX    TMP DP  RH WIND       PRES   REMARKS
WASHINGTON NAT CLOUDY    75  66  73 SW7       29.86R
DULLES         CLOUDY    70  67  90 S3        29.85F
ANDREWS AFB    CLOUDY    72  69  88 W6        29.86R
QUANTICO       CLOUDY    70  67  90 VRB5      29.87R
COLLEGE PARK*  CLOUDY    73  68  83 SW5       29.85R
LEESBURG*      CLOUDY    72  72 100 SW3       29.85F
MANASSAS*      MOSUNNY   72  70  94 SW5       29.85R
GAITHERSBURG*  CLOUDY    72  66  83 W6        29.89S

$$

MDZ006>007-011-014-271400-
BALTIMORE METRO

CITY           SKY/WX    TMP DP  RH WIND       PRES   REMARKS
BWI AIRPORT    CLOUDY    75  67  76 SW6       29.84R
MD SCIENCE CTR   N/A     78  66  66 MISG      29.84R
MARTIN STATE   PTSUNNY   77  70  78 W3        29.84R
ANNAPOLIS      CLOUDY    75  68  78 W5        29.84R
FORT MEADE*    CLOUDY    70  70 100 CALM      29.87R

$$

MDZ012-015-019>023-271400-
MARYLAND EASTERN SHORE

CITY           SKY/WX    TMP DP  RH WIND       PRES   REMARKS
OCEAN CITY     LGT RAIN  77  73  87 SW13G20   29.84F
SALISBURY      NOT AVBL
BAY BRIDGE AP*   N/A     75  68  78 W7        29.85R
CAMBRIDGE*     CLOUDY    77  68  73 S5        29.86R
EASTON*        CLOUDY    77  75  94 W7        29.89R

$$

MDZ017>025-271400-
SOUTHERN MARYLAND

CITY           SKY/WX    TMP DP  RH WIND       PRES   REMARKS
PATUXENT RIVER CLOUDY    73  69  87 NW9       29.88R
ST INIGOES     CLOUDY    75  68  78 SW13      29.85F
LEONARDTOWN*   CLOUDY    72  68  88 NW5       29.89R

$$

MDZ003>005-271400-
NORTH CENTRAL MARYLAND

CITY           SKY/WX    TMP DP  RH WIND       PRES   REMARKS
FREDERICK*     SUNNY     75  72  88 W10       29.87S
HAGERSTOWN APT PTSUNNY   72  66  81 S5        29.85S
WESTMINSTER*   CLOUDY    72  68  88 W13       29.85S

$$

MDZ501>502-271400-
WESTERN MARYLAND

CITY           SKY/WX    TMP DP  RH WIND       PRES   REMARKS
OAKLAND*       CLOUDY    64 N/A N/A W7        29.96S FOG
CUMBERLAND*    MOSUNNY   75  68  78 S7        29.89F

$$

VAZ025>031-271400-
SHENANDOAH VALLEY

CITY           SKY/WX    TMP DP  RH WIND       PRES   REMARKS
WINCHESTER*    CLOUDY    70  64  83 SW13      29.86F
STAUNTON*      LGT RAIN  68  66  92 SW3       29.94F

$$

WVZ021-048>050-054>055-271400-
EASTERN WEST VIRGINIA PANHANDLE

CITY           SKY/WX    TMP DP  RH WIND       PRES   REMARKS
MARTINSBURG    PTSUNNY   73  65  75 SW7       29.85F
PETERSBURG*    CLOUDY    69  62  79 CALM      29.88F

$$

VAZ036>039-050-271400-
CENTRAL FOOTHILLS

CITY           SKY/WX    TMP DP  RH WIND       PRES   REMARKS
CHARLOTTESVILL CLOUDY    69  68  96 SW7       29.89F
ORANGE*        LGT RAIN  70  68  94 S3        29.88F

$$

VAZ055>057-271400-
NORTH AND CENTRAL PIEDMONT

CITY           SKY/WX    TMP DP  RH WIND       PRES   REMARKS
FREDERICKSBRG* LGT RAIN  72  72  99 SW8       29.87S
STAFFORD*      CLOUDY    70  70 100 SW6       29.90F

$$

NCZ024-NYZ072-PAZ021-071-VAZ022-071-271400-
OTHER REGIONAL OBSERVATIONS

CITY           SKY/WX    TMP DP  RH WIND       PRES   REMARKS
NEW YORK CITY  PTSUNNY   74  68  81 VRB3      29.81F
PHILADELPHIA   CLOUDY    78  72  81 SW10      29.80S
PITTSBURGH     CLOUDY    71  68  90 SW6       29.85S
ROANOKE        CLOUDY    72  69  90 CALM      29.95R
RICHMOND       LGT RAIN  73  71  93 S3        29.87F
RALEIGH        CLOUDY    77  70  79 CALM      29.93F

$$

ANZ530>537-271400-
MARINE OBSERVATIONS

STATION/POSITION TIME  TEMP    WIND        PRES
                       AIR SEA DIR/SP/G
                 (UTC) (F)     (DEG/KT/KT) (MB)
THOMAS PT LIGHT  1300   74 79  270/  7/  8 1011.1R
BALT KEY BRIDGE  1300   75     230/  7/  8 1009.8F
COVE POINT       1300   73     320/  8/ 10 1011.6R
LEWISETTA        1300   74 79  230/ 13/ 16 1010.4F
SOLOMONS ISLAND  1300      81                N/A
PINEY POINT      1300          240/ 13/ 16   N/A

$$



USA.gov is the U.S. government's official web portal to all federal, state and local government web resources and services.